Mullan Pass, ID

3:34 AM PDT on October 19, 2019 (GMT -0700)
Mullan Pass

Weather History for KMLP - August, 2019

Change the Weather History Date:

Thursday, August 29, 2019

  Actual Average (WUND) Record (WUND)
Temperature  
Mean Temperature 60 °F -  
Max Temperature 68 °F - - (-1)
Min Temperature 52 °F - - (-1)
Degree Days  
Heating Degree Days 4    
Growing Degree Days 10 (Base 50)    
Moisture  
Dew Point 38 °F    
Average Humidity 47    
Maximum Humidity 86    
Minimum Humidity 24    
Precipitation  
Precipitation 0.02 in - - ()
Sea Level Pressure  
Sea Level Pressure 29.88 in    
Wind  
Wind Speed 4 mph (West)    
Max Wind Speed 5 mph    
Max Gust Speed -    
Visibility 10 miles    
Events Rain    
Averages and records for this station are not official NWS values.
T = Trace of Precipitation, MM = Missing Value Source: NWS Daily Summary

Daily Weather History Graph

Daily Weather History Graph

Search for Another Location

Airport or City:

Astronomy

Aug. 29, 2019 Rise Set
Actual Time 5:57 AM PDT 7:29 PM PDT
Civil Twilight 5:25 AM PDT 8:01 PM PDT
Nautical Twilight 4:46 AM PDT 8:39 PM PDT
Astronomical Twilight 4:03 AM PDT 9:21 PM PDT
Moon 4:39 AM PDT (8/29) 7:34 PM PDT (8/29)
Length of Visible Light 14h 35m
Length of Day
13h 31m
Waning Crescent, 1% of the Moon is Illuminated
Aug 29
Waning Crescent
Aug 30
New
Sep 5
First Quarter
Sep 13
Full
Sep 21
Last Quarter

Hourly Weather History & Observations

Time (PDT) Temp. Dew Point Humidity Pressure Visibility Wind Dir Wind Speed Gust Speed Precip Events Conditions
12:53 AM 64.0 °F 30.0 °F 28% 29.83 in 10.0 mi WNW 4.6 mph - N/A   Clear
1:53 AM 63.0 °F 30.0 °F 29% 29.83 in 10.0 mi WNW 4.6 mph - N/A   Clear
2:53 AM 64.9 °F 28.0 °F 25% 29.81 in 10.0 mi WNW 4.6 mph - N/A   Clear
3:53 AM 64.0 °F 28.9 °F 27% 29.82 in 10.0 mi WNW 4.6 mph - N/A   Clear
4:53 AM 64.0 °F 28.9 °F 27% 29.83 in 10.0 mi WNW 4.6 mph - N/A   Clear
5:53 AM 64.9 °F 28.0 °F 25% 29.83 in 10.0 mi WSW 4.6 mph - N/A   Clear
6:53 AM 64.9 °F 27.0 °F 24% 29.85 in 10.0 mi Calm Calm - N/A   Clear
7:53 AM 64.0 °F 30.9 °F 29% 29.88 in 10.0 mi SW 4.6 mph - N/A   Clear
8:53 AM 66.9 °F 33.1 °F 28% 29.88 in 10.0 mi Variable 3.5 mph - N/A   Clear
9:53 AM 64.9 °F 39.0 °F 39% 29.89 in 10.0 mi Variable 3.5 mph - N/A   Clear
10:53 AM 64.0 °F 35.1 °F 34% 29.89 in 10.0 mi Variable 3.5 mph - N/A   Clear
11:53 AM 62.1 °F 35.1 °F 37% 29.91 in 10.0 mi Variable 3.5 mph - N/A   Overcast
12:53 PM 61.0 °F 35.1 °F 38% 29.92 in 10.0 mi Calm Calm - 0.00 in   Overcast
1:53 PM 55.9 °F 44.1 °F 64% 29.94 in 10.0 mi WNW 4.6 mph - 0.00 in Rain Light Rain
2:53 PM 57.0 °F 46.0 °F 67% 29.93 in 10.0 mi Calm Calm - 0.01 in Rain Light Rain
3:53 PM 57.0 °F 44.1 °F 62% 29.93 in 10.0 mi Variable 4.6 mph - 0.00 in   Mostly Cloudy
4:53 PM 57.9 °F 46.0 °F 65% 29.91 in 10.0 mi Variable 4.6 mph - N/A   Overcast
5:53 PM 57.0 °F 45.0 °F 64% 29.90 in 10.0 mi Calm Calm - N/A   Overcast
6:53 PM 57.0 °F 45.0 °F 64% 29.90 in 10.0 mi Calm Calm - N/A   Overcast
7:53 PM 55.9 °F 45.0 °F 67% 29.89 in 10.0 mi WNW 3.5 mph - 0.00 in   Overcast
8:53 PM 55.9 °F 46.0 °F 69% 29.88 in 10.0 mi SSW 3.5 mph - N/A   Overcast
9:53 PM 55.9 °F 46.0 °F 69% 29.88 in 10.0 mi SSW 3.5 mph - N/A   Overcast
10:53 PM 55.0 °F 46.0 °F 72% 29.89 in 10.0 mi Calm Calm - N/A   Overcast
11:53 PM 52.0 °F 48.0 °F 86% 29.91 in 8.0 mi South 3.5 mph - 0.01 in Rain Light Rain